Regional Weather Roundup
Issued by NWS

Home | Current Version | Previous Version | Text Only | Print | Product List | Glossary Off
Versions: 1 2 3 4 5 6 7 8 9 10 11 12 13 14 15 16 17 18 19 20 21 22 23 24 25 26 27 28 29 30 31 32 33 34 35 36 37 38 39 40 41 42 43 44 45 46 47 48 49 50

345
ASUS43 KOAX 310602
RWRNE

WEATHER ROUNDUP FOR NEBRASKA
NATIONAL WEATHER SERVICE OMAHA NE
100 AM CDT TUE MAY 31 2016

NOTES: SATELLITE DATA IS BEING USED TO AUGMENT CLOUD COVER ABOVE
       12000 FEET.
       "FAIR" INDICATES FEW OR NO CLOUDS BELOW 12,000 FEET WITH NO
       SIGNIFICANT WEATHER AND/OR OBSTRUCTIONS TO VISIBILITY.

  * THESE STATIONS DO NOT REPORT WEATHER SUCH AS RAIN...SNOW OR FOG.

NEZ001>004-019>022-054>056-310700-
NEBRASKA PANHANDLE

CITY           SKY/WX    TMP DP  RH WIND       PRES   REMARKS
SCOTTSBLUFF    CLOUDY    54  46  74 N6        30.10S
6HR MIN TEMP:  54; 6HR MAX TEMP:  72; 6HR PCP:  0.01;

ALLIANCE       CLOUDY    52  47  83 N12       30.08R
6HR MIN TEMP:  52; 6HR MAX TEMP:  69; 6HR PCP:  0.02;

CHADRON        MOCLDY    51  47  86 CALM      30.08F
6HR MIN TEMP:  50; 6HR MAX TEMP:  77; 6HR PCP: TRACE;

SIDNEY         MOCLDY    54  49  83 NE20G31   30.06R
6HR MIN TEMP:  52; 6HR MAX TEMP:  61; 6HR PCP: TRACE;

$$

NEZ057>060-069>072-079>082-310700-
SOUTHWEST NEBRASKA

CITY           SKY/WX    TMP DP  RH WIND       PRES   REMARKS
NORTH PLATTE   PTCLDY    58  51  78 N7        29.95F
6HR MIN TEMP:  55; 6HR MAX TEMP:  76; 6HR PCP:  0.17;

IMPERIAL       CLOUDY    57  53  86 N9        29.99R
6HR MIN TEMP:  57; 6HR MAX TEMP:  63;

LEXINGTON      CLOUDY    59  55  88 W3        29.90R
MCCOOK         CLOUDY    56  53  90 W6        29.93S
6HR MIN TEMP:  56; 6HR MAX TEMP:  79; 6HR PCP:  0.37;

$$

NEZ005>010-023>029-035>040-094-310700-
NORTH CENTRAL NEBRASKA

CITY           SKY/WX    TMP DP  RH WIND       PRES   REMARKS
VALENTINE      CLOUDY    55  52  89 W9        29.98S
6HR MIN TEMP:  54; 6HR MAX TEMP:  63; 6HR PCP:  0.10;

AINSWORTH      CLOUDY    57  53  85 NW7       29.95F
BROKEN BOW     CLOUDY    61  55  81 NW16      29.90R
6HR MIN TEMP:  59; 6HR MAX TEMP:  80; 6HR PCP:  0.35;

ORD            LGT RAIN  62  57  83 N13       29.85F
6HR MIN TEMP:  62; 6HR MAX TEMP:  82; 6HR PCP:  0.03;

$$

NEZ041-046>049-061>064-073>077-083>087-310700-
SOUTH CENTRAL NEBRASKA

CITY           SKY/WX    TMP DP  RH WIND       PRES   REMARKS
GRAND ISLAND   LGT RAIN  62  58  86 E6        29.91F
6HR MIN TEMP:  60; 6HR MAX TEMP:  81; 6HR PCP:  0.15;

HASTINGS       RAIN      61  58  90 SW5       29.93S FOG
6HR MIN TEMP:  61; 6HR MAX TEMP:  77; 6HR PCP:  0.68;

KEARNEY *      CLOUDY    61  54  77 NW9       29.88S
YORK           LGT RAIN  64  57  77 NW16G25   29.92R
$$

NEZ011>018-030>034-042>045-310700-
NORTHEAST NEBRASKA

CITY           SKY/WX    TMP DP  RH WIND       PRES   REMARKS
NORFOLK        TSTM      59  56  89 VRB3      29.90S FOG
6HR MIN TEMP:  59; 6HR MAX TEMP:  82; 6HR PCP:  0.47;

BLAIR          CLOUDY    68  62  81 S15G21    29.88F
FREMONT        CLOUDY    69  61  75 S15G22    29.87F
TEKAMAH        CLOUDY    67  60  78 S15       29.86F
6HR MIN TEMP:  66; 6HR MAX TEMP:  75;

$$

NEZ050>053-065>068-078-088>093-310700-
SOUTHEAST NEBRASKA

CITY           SKY/WX    TMP DP  RH WIND       PRES   REMARKS
LINCOLN        CLOUDY    71  61  70 S12       29.88F
6HR MIN TEMP:  71; 6HR MAX TEMP:  84;

OMAHA EPPLEY   CLOUDY    69  62  78 S14       29.88F
6HR MIN TEMP:  67; 6HR MAX TEMP:  74; 6HR PCP: TRACE;

FALLS CITY     LGT RAIN  68  61  78 S8        29.92F
6HR MIN TEMP:  66; 6HR MAX TEMP:  78; 6HR PCP: TRACE;

PLATTSMOUTH    CLOUDY    68  65  90 S12       29.90F
$$

NEZ044-045-051>053-067-310700-
OMAHA AREA

CITY           SKY/WX    TMP DP  RH WIND       PRES   REMARKS
OMAHA EPPLEY   CLOUDY    69  62  78 S14       29.88F
6HR MIN TEMP:  67; 6HR MAX TEMP:  74; 6HR PCP: TRACE;

BLAIR          CLOUDY    68  62  81 S15G21    29.88F
FREMONT        CLOUDY    69  61  75 S15G22    29.87F
PLATTSMOUTH    CLOUDY    68  65  90 S12       29.90F
$$




USA.gov is the U.S. government's official web portal to all federal, state and local government web resources and services.